STARLINK-2020 (47642 NORAD) Tracking and Keplerian Element Data

This shows tracking and keplerian element data for the satellite.

Feedback or suggestion? Click here.




ElementValue
Catalog47642
NameSTARLINK-2020
Epoch Orbit177
Epoch Day59.91667824
Epoch Year2021
RAAN38.675
Inclination53.0518
Eccentricity0.0001121
Argument of Perigee77.6024
Mean Anonmoly136.3713
Mean Motion15.72789576
Decay Rate-0.00992624
L11 47642U 21012Y 21059.91667824 -.00992624 00000-0 -79475-2 0 9997
L22 47642 53.0518 38.6750 0001121 77.6024 136.3713 15.72789576 1773

Live tracking and technical data element details for STARLINK-2020 (NORAD 47642). STARLINK-2020 can be tracked NOW for your location showing map with azimuth and elevation plus other details from your city location.

Track the satellite on the map from your city or location and see movement details for azimuth, elevation, latitude, longitude, range, height, and movement on the map or in text.







IsCatalogInMostPopularTable: catalog: 47642, numindb: 3
Update: records affected: 1



GetName: 47642 STARLINK-2020

Hit Count: updated at: Mon, 01 Mar 2021 15:54:01 GMT